Starlink 33701

operational
NORAD ID: 63464 Int'l Des: 2025-070 Owner: SPXS Country: US Constellation: starlink
LEOCIRCULAR

About Starlink 33701

Description loading...

Live Position

Loading 3D Globe...

Upcoming Passes

Altitude History

Altitude vs Time

uPlot chart will show altitude changes over time

Two-Line Element Set

1 63464U 25070E 26101.26279832 .00010364 00000-0 38553-3 0 9997
2 63464 43.0023 76.2265 0001572 272.1462 87.9210 15.27587042 57958
Epoch: Apr 11, 2026 • Age: 24 hours

Current Status

Altitude 484.6 km
Velocity 7.63 km/s
Sub-Earth Point 30.73°N, 85.56°W
Launch Date Apr 6, 2025
Age 1 years
Type internet

Technical Details

Classification Payload
Mass 575.00 kg
Dry Mass 530.00 kg
Total Mass 575.00 kg
Length 0.30 m
Diameter 4.10 m
Span 29.00 m
Shape Box + pan
Manufacturer SPXS
Bus Type Starlink V2MO
Phase Status In Orbit
Owner/State SPXS/US

Large Constellations

Loading constellations...